Driggs, ID

3:58 AM MDT on April 23, 2018 (GMT -0600)
Driggs

Weather History for KDIJ - August, 2014

Change the Weather History Date:

Sunday, August 17, 2014

  Actual Average (KJAC) Record (KJAC)
Temperature  
Mean Temperature 66 °F -  
Max Temperature 81 °F 76 °F 88 °F (1966)
Min Temperature 50 °F 40 °F 27 °F (1987)
Growing Degree Days 16 (Base 50)    
Moisture  
Dew Point 40 °F    
Average Humidity 44    
Maximum Humidity 72    
Minimum Humidity 18    
Precipitation  
Precipitation 0.00 in - - ()
Sea Level Pressure  
Sea Level Pressure 30.00 in    
Wind  
Wind Speed 7 mph (SSE)    
Max Wind Speed 14 mph    
Max Gust Speed -    
Visibility 10 miles    
Events      
Averages and records for this station are not official NWS values.
T = Trace of Precipitation, MM = Missing Value Source: NWS Daily Summary

Daily Weather History Graph

Daily Weather History Graph

Search for Another Location

Airport or City:

Astronomy

Aug. 17, 2014 Rise Set
Actual Time 6:31 AM MDT 8:24 PM MDT
Civil Twilight 6:00 AM MDT 8:55 PM MDT
Nautical Twilight 5:22 AM MDT 9:33 PM MDT
Astronomical Twilight 4:41 AM MDT 10:14 PM MDT
Moon No Moon Rise 2:35 PM MDT (8/17)
Length of Visible Light 14h 55m
Length of Day
13h 53m
Waning Gibbous, 48% of the Moon is Illuminated
Aug 17
Waning Gibbous
Aug 25
New
Sep 2
First Quarter
Sep 8
Full
Sep 15
Last Quarter

Hourly Weather History & Observations

Time (MDT) Temp. Dew Point Humidity Pressure Visibility Wind Dir Wind Speed Gust Speed Precip Events Conditions
12:56 AM 56.8 °F 39.9 °F 53% 29.99 in 10.0 mi ESE 6.9 mph - N/A   Clear
1:56 AM 55.9 °F 39.9 °F 55% 29.98 in 10.0 mi SSE 10.4 mph - N/A   Clear
2:56 AM 57.9 °F 38.8 °F 49% 29.96 in 10.0 mi South 11.5 mph - N/A   Clear
3:56 AM 54.0 °F 38.8 °F 57% 29.99 in 10.0 mi SSE 8.1 mph - N/A   Clear
4:56 AM 54.0 °F 38.8 °F 57% 30.00 in 10.0 mi SSE 9.2 mph - N/A   Clear
5:56 AM 54.0 °F 38.8 °F 57% 30.01 in 10.0 mi SSE 6.9 mph - N/A   Clear
6:56 AM 50.9 °F 39.9 °F 66% 30.05 in 10.0 mi South 3.5 mph - N/A   Clear
7:56 AM 55.9 °F 43.9 °F 64% 30.06 in 10.0 mi Calm Calm - N/A   Clear
8:56 AM 64.9 °F 45.0 °F 48% 30.06 in 10.0 mi ESE 3.5 mph - N/A   Clear
10:56 AM 70.9 °F 39.9 °F 32% 30.06 in 10.0 mi WNW 3.5 mph - N/A   Clear
11:56 AM 73.9 °F 41.0 °F 30% 30.05 in 10.0 mi Variable 3.5 mph - N/A   Clear
12:56 PM 75.9 °F 39.9 °F 27% 30.03 in 10.0 mi Variable 5.8 mph - N/A   Clear
1:56 PM 77.0 °F 38.8 °F 25% 30.01 in 10.0 mi Variable 4.6 mph - N/A   Clear
2:56 PM 79.9 °F 39.9 °F 24% 29.99 in 10.0 mi West 4.6 mph - N/A   Clear
3:56 PM 81.0 °F 32.9 °F 18% 29.99 in 10.0 mi WNW 13.8 mph - N/A   Clear
4:56 PM 79.9 °F 32.0 °F 18% 29.98 in 10.0 mi West 8.1 mph - N/A   Clear
5:56 PM 79.9 °F 34.0 °F 19% 29.97 in 10.0 mi NW 8.1 mph - N/A   Clear
6:56 PM 77.9 °F 38.8 °F 25% 29.96 in 10.0 mi NNW 4.6 mph - N/A   Clear
7:56 PM 72.0 °F 43.9 °F 36% 29.97 in 9.0 mi East 5.8 mph - N/A   Clear
8:56 PM 61.9 °F 43.9 °F 52% 29.98 in 10.0 mi East 9.2 mph - N/A   Clear
9:56 PM 59.9 °F 43.0 °F 54% 29.98 in 10.0 mi SSE 4.6 mph - N/A   Clear
10:56 PM 54.0 °F 45.0 °F 72% 29.98 in 10.0 mi North 3.5 mph - N/A   Clear
11:56 PM 54.9 °F 45.0 °F 69% 29.97 in 10.0 mi Calm Calm - N/A   Partly Cloudy